Regional Weather Roundup
Issued by NWS Charleston, SC

Current Version | Previous Version | Graphics & Text | Print | Product List | Glossary On
Versions: 1 2 3 4 5 6 7 8 9 10 11 12 13 14 15 16 17 18 19 20 21 22 23 24 25 26 27 28 29 30 31 32 33 34 35 36 37 38 39 40 41 42 43 44 45 46 47 48 49 50
000
ASUS42 KCHS 242126
RWRCHS

REGIONAL WEATHER ROUNDUP
NATIONAL WEATHER SERVICE CHARLESTON SC
500 PM EDT FRI APR 24 2015

NOTE: "FAIR" INDICATES FEW OR NO CLOUDS BELOW 12,000 FEET WITH NO
SIGNIFICANT WEATHER AND/OR OBSTRUCTIONS TO VISIBILITY.

NOT ALL STATIONS ARE QUALITY CONTROLLED BY THE NATIONAL
WEATHER SERVICE. USE DATA WITH CAUTION...ESPECIALLY
DEWPOINT OBSERVATIONS.

SCZ027-030-031-034>040-042>050-242200-
...SOUTHEAST SOUTH CAROLINA...

CITY           SKY/WX    TMP DP  RH WIND       PRES   REMARKS
N CHARLESTON   MOSUNNY   70  40  33 S7        30.01F
WATERFRONT PRK   N/A     64 N/A N/A SE10        N/A
MOUNT PLEASANT FAIR      66  43  42 MISG      30.02S
PINOPOLIS      NOT AVBL
MONCKS CORNER  FAIR      72  34  25 CALM      30.00F
SUMMERVILLE    FAIR      73  36  25 CALM      30.00F
BEAUFORT MCAS  SUNNY     70  47  43 SE6       30.01F
BEAUFORT ARPT  FAIR      68  45  42 SE6       30.01S
HILTON HEAD IS SUNNY     68  43  40 E7        30.03F
WALTERBORO     CLEAR     72  32  23 W3        30.00F
ALLENDALE      FAIR      73  36  25 CALM      29.98F

...SOUTHERN MIDLANDS AND PEE DEE...

CITY           SKY/WX    TMP DP  RH WIND       PRES   REMARKS
GEORGETOWN     NOT AVBL
KINGSTREE      NOT AVBL
ORANGEBURG     SUNNY     72  32  23 CALM      29.99F
BARNWELL       FAIR      73  36  25 SE3       29.99S
AIKEN          FAIR      72  28  20 SW3       30.00F
MANNING        FAIR      68  32  26 S7        30.00F
COLUMBIA       MOSUNNY   74  30  19 W5        29.97F
SUMTER         SUNNY     71  33  24 SW7       29.97F
FLORENCE       SUNNY     72  28  19 VRB3      29.99S
MYRTLE BEACH   SUNNY     68  36  30 S16       30.02S
N MYRTLE BEACH SUNNY     66  38  35 S13       30.00R

$$

GAZ063-065-086>088-099>101-113>116-118-119-134>141-150-242200-
...SOUTHEAST GEORGIA...

CITY           SKY/WX    TMP DP  RH WIND       PRES   REMARKS
SAVANNAH ARPT  MOSUNNY   71  40  32 SE12      30.01S
HUNTER AAF     SUNNY     70  45  40 E8        30.00F
FORT STEWART   SUNNY     73  44  35 E9        29.98F
STATESBORO       N/A     76  42  28 E3        29.99S
SYLVANIA       CLEAR     75  41  29 CALM      30.00S
CLAXTON        FAIR      75  46  35 SE5       29.98F

...CSRA...CENTRAL AND FAR SOUTHEAST GEORGIA...

CITY           SKY/WX    TMP DP  RH WIND       PRES   REMARKS
THOMSON        SUNNY     77  41  27 CALM      30.02S
AUGUSTA-BUSH   SUNNY     74  37  26 SE5       29.97F
AUGUSTA-DANIEL SUNNY     74  33  22 SW5       29.98F
SWAINSBORO     NOT AVBL
VIDALIA        SUNNY     77  45  31 SW3       29.99S
EASTMAN        FAIR      79  47  32 SE3       30.00S
HAZLEHURST     FAIR      79  45  29 CALM      29.97F
ALMA           SUNNY     80  45  28 VRB5      29.97F
WAYCROSS       SUNNY     84  57  39 SE8       29.97S
JESUP          FAIR      77  50  38 SE7       30.00S
BAXLEY         FAIR      81  45  28 S5        29.98S
BRUNSWICK      SUNNY     72  46  40 E9        30.02F
SAINT SIMONS   SUNNY     68  48  48 E10       30.02F

$$

SCZ027-028-034-036>038-045-046-048>050-GAZ119-141-242200-
...LAKE AND SUPPLEMENTAL COASTAL OBSERVATIONS...

STATION/POSITION TIME  TEMP    WIND        PRES    WAVE   SWELL
                       AIR SEA DIR/SP/G            HT/PER HT/PER/DIR
                 (UTC) (F)     (DEG/KT/KT) (MB)    (FT/S) (FT/S/D)
UPR LAKE MARION  NOT AVBL
WINYAH BAY       2045   64     150/  8     1015.0F
LAKE MURRAY      2000   67     200/  5/  7 1015.9F
ACE BASIN NERRS  NOT AVBL
FORT PULASKI     2100   67 71  130/  5/  8 1017.2F
SAPELO ISLAND    2000   70      70/  8     1017.0F

$$

ANZ835-935-AMZ111-154-330-350-352-354-370-450-454-472-242200-
...C-MAN AND BUOY OBSERVATIONS...

STATION/POSITION TIME  TEMP    WIND        PRES    WAVE   SWELL
                       AIR SEA DIR/SP/G            HT/PER HT/PER/DIR
                 (UTC) (F)     (DEG/KT/KT) (MB)    (FT/S) (FT/S/D)
BUOY 41004       2050   63 71   80/  8/ 12 1016.3F   5/ 7   5/ 7
BUOY 41008       2050   65 69   80/ 10/ 12 1017.0F   5/ 7   5/ 70/ 7
FOLLY BEACH CMAN 2100   63     130/  9/ 10 1016.8S
CAPERS NEARSHORE 2008   63     140/  8/ 12   N/A
FRIPP NEARSHORE  2000   66     120/ 10/ 12 1016.7F


STATION/POSITION TIME  TEMP    WIND        PRES    WAVE   SWELL
                       AIR SEA DIR/SP/G            HT/PER HT/PER/DIR
                 (UTC) (F)     (DEG/KT/KT) (MB)    (FT/S) (FT/S/D)
5E ST. MARYS GA  2021      69                N/A     4/14   2/120/14
FRYING PAN BUOY  2050   62 71   CALM  /  2 1016.9F   4/ 6   3/ 80/ 6
BUOY 41025       2050   56 74   30/  4/  8 1015.1F   4/ 8   5/ 60/ 8
CAPE LOOKOUT NC  2100   62     210/  9/ 11 1014.5F
BUOY 41002       2050   65 71  360/ 16/ 17 1014.8R   7/ 7   3/300/ 7
BUOY 41010       2020   76 79   30/ 14/ 16 1014.5F
ST AUGUSTINE FL  2100   68 68  360/ 11/ 12 1016.9F


$$


USA.gov is the U.S. government's official web portal to all federal, state and local government web resources and services.